[[{"header":{"parameterUnit":"m.s-1","parameterCategory":1,"la1":30.2991,"la2":30.254,"lo1":-89.0895,"lo2":-89.0444,"dy":0.0017,"dx":0.0017,"nx":28,"ny":28,"refTime":"2025-02-28T03:00:00:Z","depth":0,"parameterNumber":2,"parameterNumberName":"U-component_of_WINDS"},"data":[0,0,0,0,0,0,0,0,0,0,0,0,0,0,0,0,0,0,0,0,0,0,0,0,0,0,0,0,0,0,0,0,0,0,0,0,0,0,0,0,0,0,0,0,0,0,0,0,0,0,0,0,0,0,0,0,0,0,1.8963,1.8964,0,1.9091,1.9092,1.9094,1.9089,1.9088,1.9086,1.9084,1.9221,1.9227,1.9232,0,0,0,0,0,0,0,0,0,0,0,0,0,1.8723,1.8728,1.8963,1.8964,1.8966,1.9091,1.9093,1.9094,1.909,1.9088,1.9085,1.9083,1.922,1.9226,1.9232,0,0,0,0,0,0,0,0,0,0,0,0,0,1.8837,1.8729,1.8962,1.8979,1.8981,1.909,1.9093,1.9095,1.909,1.9088,1.9085,1.9082,1.9218,1.9225,1.9233,1.9337,0,0,1.9258,1.9261,0,0,0,0,0,0,0,0,1.8831,1.8846,1.8975,1.8978,1.8981,1.9071,1.9058,1.9176,1.9091,1.9049,1.9084,1.9081,1.9174,1.9185,1.9216,1.9343,1.9349,1.9258,1.9263,1.9267,1.9269,0,0,0,0,0,0,0,1.8823,1.8841,1.9014,1.8977,1.898,1.8983,1.8996,1.9081,1.9125,1.9052,1.9052,1.9067,1.9175,1.9208,1.9219,1.9351,1.9258,1.9265,1.927,1.9273,1.9578,1.9581,0,0,0,0,0,0,1.881,1.8834,1.901,1.9017,1.8897,1.8989,1.9004,1.9045,1.9124,1.9134,1.907,1.9067,1.9196,1.921,1.9224,1.9356,1.9267,1.9274,1.9279,1.9575,1.9579,1.9582,0,0,0,0,0,0,1.8805,1.8826,1.9004,1.8926,1.8949,1.8996,1.9043,1.9049,1.9082,1.9137,1.9146,1.9094,1.9194,1.9212,1.931,1.936,1.9278,1.9285,1.9571,1.9576,1.958,1.9617,0,0,0,0,0,0,1.8798,1.8824,1.8861,1.8927,1.8953,1.9086,1.9045,1.9054,1.9095,1.9092,1.9163,1.9172,1.9193,1.9298,1.9318,1.937,1.9291,1.9567,1.9573,1.9579,1.9611,1.9622,1.9632,0,0,0,0,0,1.879,1.8866,1.8863,1.8885,1.9,1.9088,1.9104,1.9125,1.9098,1.9139,1.9176,1.9169,1.935,1.9308,1.933,1.9385,1.9564,1.9571,1.9578,1.9607,1.962,1.9631,0,0,0,0,0,0,1.8807,1.8875,1.8872,1.8971,1.9024,1.9087,1.9138,1.9138,1.92,1.9196,1.9222,1.9238,1.9337,1.937,1.9322,1.9493,1.9454,1.9466,1.9468,1.9481,1.9491,1.9483,1.9298,0,0,0,0,0,1.8821,1.8885,1.8942,1.9025,1.9051,1.909,1.9129,1.9142,1.9198,1.9221,1.9264,1.9322,1.9392,1.9438,1.9505,1.9615,1.9634,1.9665,1.9675,1.9683,1.9695,1.9762,1.9779,1.9606,1.9606,1.9606,0,0,1.8854,1.8899,1.8938,1.9029,1.9071,1.9141,1.9109,1.9182,1.9235,1.9233,1.9329,1.9363,1.9429,1.9535,1.9584,1.9566,1.9746,1.9692,1.9698,1.9706,1.9772,1.9788,1.9803,1.9611,1.9611,1.961,0,0,1.8949,1.8987,1.9063,1.9106,1.9171,1.9197,1.9215,1.928,1.9302,1.9398,1.94,1.9465,1.9583,1.9633,1.9673,1.9792,1.9792,1.9813,1.9868,1.9934,1.9947,1.996,2.0008,2.0025,1.9824,1.9824,1.9824,0,1.8981,1.9083,1.9102,1.9177,1.922,1.922,1.9301,1.9342,1.9426,1.9458,1.9436,1.9589,1.9633,1.9754,1.9784,1.9814,1.9841,1.9807,1.9943,1.9956,1.9968,2.0015,2.0032,1.9826,1.9826,1.9826,1.9826,0,1.9124,1.9195,1.9248,1.933,1.9379,1.9455,1.949,1.9538,1.9547,1.9577,1.9679,1.9732,1.9813,1.9842,1.985,1.9966,1.9954,1.9937,1.9899,1.9987,2.0032,2.0049,1.983,1.9829,1.9828,1.9828,0,0,1.9232,1.9325,1.9346,1.9385,1.9458,1.9516,1.9595,1.9673,1.9717,1.9775,1.9847,1.995,1.9937,1.9983,1.9998,2.0055,2.0154,2.0032,2.0034,2.0058,2.0292,2.0308,2.0328,2.0152,2.0156,2.0158,2.0289,0,1.934,1.9479,1.95,1.9625,1.9695,1.9697,1.9768,1.9823,1.9854,1.992,1.9955,2.003,2.0003,2.0033,2.0089,2.013,2.0202,2.012,2.0225,2.0228,2.0213,2.035,2.0366,2.0486,2.0306,2.0309,2.0311,0,1.9482,1.9546,1.9677,1.9747,1.9777,1.9839,1.9916,1.9978,2.0042,2.0061,2.0115,2.0124,2.0213,2.0168,2.0293,2.0237,2.0281,2.0308,2.0314,2.0328,2.0278,2.0374,2.0525,2.0545,2.0337,2.0335,2.0333,0,1.9557,1.9674,1.977,1.9803,1.9884,1.993,1.9966,2.0027,2.0075,2.0143,2.0176,2.0253,2.0297,2.0359,2.0391,2.0354,2.0517,2.0473,2.054,2.054,2.0577,2.0575,2.0742,2.0597,2.0596,2.0596,2.0596,0,1.9677,1.9759,1.9805,1.9865,1.9959,1.9984,2.0077,2.0113,2.0169,2.0239,2.0245,2.0311,2.0347,2.042,2.0445,2.0549,2.0567,2.0589,2.0596,2.0592,2.059,2.0624,2.0619,2.0601,2.06,2.0599,2.0598,0,1.9776,1.981,1.9916,1.9985,2.0004,2.0071,2.0132,2.0193,2.0224,2.0313,2.0335,2.0386,2.0472,2.051,2.0615,2.0633,2.0754,2.0752,2.0733,2.0736,2.0803,2.0799,2.1003,2.1034,2.0862,2.0864,2.0865,0,1.9853,1.9917,1.9993,2.004,2.0078,2.0152,2.0202,2.0231,2.0283,2.0364,2.0416,2.0502,2.0573,2.0713,2.0761,2.0844,2.0848,2.0914,2.0861,2.0857,2.0857,2.0855,2.0865,2.0925,2.0927,2.0928,2.0929,0,1.9988,2.0003,2.0072,2.015,2.0209,2.0272,2.0333,2.0372,2.0411,2.047,2.0559,2.0614,2.0724,2.0812,2.0899,2.094,2.0945,2.0945,2.0966,2.0965,2.0954,2.0967,2.0765,2.0941,2.094,2.0939,2.0939,2.0938,2.0083,2.0142,2.0206,2.0286,2.0335,2.0394,2.0456,2.0496,2.0569,2.0661,2.0673,2.077,2.0839,2.0956,2.1001,2.108,2.1064,2.1093,2.1101,2.111,2.1117,2.0937,2.1095,2.1095,2.1095,2.1094,2.1094,0,2.0223,2.0266,2.0338,2.0425,2.0489,2.0484,2.0553,2.0609,2.0693,2.0755,2.0826,2.0931,2.1018,2.1074,2.1163,2.1216,2.1221,2.1239,2.1238,2.1249,2.1123,2.1098,2.1234,2.1234,2.1234,2.1234,2.1234,2.1234,2.0304,2.0406,2.0429,2.0558,2.06,2.0694,2.0735,2.0791,2.0842,2.0959,2.1031,2.1066,2.1129,2.1223,2.1304,2.1319,2.1355,2.1375,2.139,2.1272,2.1257,2.1243,2.1221,2.1381,2.1381,2.1511,2.1512,2.1513]},{"header":{"parameterUnit":"m.s-1","parameterCategory":1,"la1":30.2991,"la2":30.254,"lo1":-89.0895,"lo2":-89.0444,"dy":0.0017,"dx":0.0017,"nx":28,"ny":28,"refTime":"2025-02-28T03:00:00:Z","depth":0,"parameterNumber":3,"parameterNumberName":"V-component_of_WINDS"},"data":[0,0,0,0,0,0,0,0,0,0,0,0,0,0,0,0,0,0,0,0,0,0,0,0,0,0,0,0,0,0,0,0,0,0,0,0,0,0,0,0,0,0,0,0,0,0,0,0,0,0,0,0,0,0,0,0,0,0,-5.0465,-5.0463,0,-5.0274,-5.0271,-5.0269,-5.0216,-5.0217,-5.0218,-5.0219,-5.0011,-5.0005,-4.9999,0,0,0,0,0,0,0,0,0,0,0,0,0,-5.077,-5.0765,-5.0465,-5.0462,-5.046,-5.0274,-5.0271,-5.0269,-5.0215,-5.0217,-5.0218,-5.0219,-5.0014,-5.0006,-4.9998,0,0,0,0,0,0,0,0,0,0,0,0,0,-5.0614,-5.0763,-5.0465,-5.0411,-5.0405,-5.0275,-5.0271,-5.0268,-5.0215,-5.0217,-5.0219,-5.022,-5.0016,-5.0007,-4.9997,-4.9903,0,0,-4.9967,-4.9963,0,0,0,0,0,0,0,0,-5.0623,-5.0603,-5.0422,-5.0415,-5.0407,-5.0271,-5.0303,-5.0145,-5.0215,-5.0287,-5.0219,-5.0221,-5.0095,-5.0079,-5.0039,-4.9893,-4.9884,-4.9966,-4.996,-4.9956,-4.9953,0,0,0,0,0,0,0,-5.0634,-5.061,-5.0389,-5.0419,-5.041,-5.0392,-5.0372,-5.0273,-5.0184,-5.0281,-5.0276,-5.0255,-5.0092,-5.0049,-5.0034,-4.9881,-4.9966,-4.9957,-4.9951,-4.9948,-4.9642,-4.964,0,0,0,0,0,0,-5.0655,-5.062,-5.0395,-5.0383,-5.0522,-5.0385,-5.0363,-5.0312,-5.0185,-5.0167,-5.0254,-5.0253,-5.0065,-5.0046,-5.0027,-4.9904,-4.9956,-4.9947,-4.9941,-4.9644,-4.9642,-4.9639,0,0,0,0,0,0,-5.0662,-5.0636,-5.0403,-5.05,-5.0469,-5.0379,-5.0322,-5.0308,-5.0265,-5.0165,-5.0147,-5.0227,-5.0065,-5.004,-4.9934,-4.9896,-4.9942,-4.9933,-4.9647,-4.9644,-4.9641,-4.9661,0,0,0,0,0,0,-5.0671,-5.0639,-5.0606,-5.05,-5.0464,-5.0317,-5.032,-5.0303,-5.025,-5.0247,-5.0135,-5.0118,-5.0065,-4.9949,-4.9924,-4.9883,-4.9926,-4.965,-4.9646,-4.9642,-4.9663,-4.9659,-4.9655,0,0,0,0,0,-5.0682,-5.0618,-5.0604,-5.0577,-5.0422,-5.0315,-5.0294,-5.0238,-5.0247,-5.021,-5.0145,-5.0122,-4.9905,-4.9938,-4.991,-4.9866,-4.9652,-4.9647,-4.9642,-4.9665,-4.966,-4.9655,0,0,0,0,0,0,-5.0717,-5.0603,-5.0587,-5.0487,-5.0412,-5.0307,-5.0259,-5.0235,-5.0152,-5.0153,-5.0082,-5.0057,-4.9954,-4.99,-4.9938,-4.9765,-4.9777,-4.9767,-4.9805,-4.9799,-4.9795,-4.9808,-4.9917,0,0,0,0,0,-5.0715,-5.0642,-5.0544,-5.0465,-5.0428,-5.035,-5.0302,-5.0265,-5.0182,-5.0149,-5.0076,-4.9993,-4.9906,-4.985,-4.9765,-4.9656,-4.9627,-4.9611,-4.9607,-4.9605,-4.9595,-4.9527,-4.9517,-4.9623,-4.9623,-4.9623,0,0,-5.0706,-5.0634,-5.0592,-5.047,-5.0407,-5.0328,-5.0323,-5.0242,-5.0181,-5.0135,-5.003,-4.9973,-4.9876,-4.9767,-4.9715,-4.9718,-4.9559,-4.9598,-4.9597,-4.9588,-4.9521,-4.9511,-4.9502,-4.962,-4.962,-4.9621,0,0,-5.0649,-5.059,-5.0515,-5.0453,-5.0359,-5.0307,-5.029,-5.0187,-5.0149,-5.0043,-5.0006,-4.9931,-4.9784,-4.9714,-4.966,-4.9574,-4.9547,-4.9548,-4.9525,-4.9461,-4.9452,-4.9444,-4.9409,-4.9397,-4.954,-4.954,-4.954,0,-5.0648,-5.0533,-5.0479,-5.0398,-5.0343,-5.0302,-5.0222,-5.0163,-5.0045,-5.0005,-5.0012,-4.9824,-4.9756,-4.9627,-4.9606,-4.9565,-4.9538,-4.9559,-4.9459,-4.945,-4.9442,-4.9407,-4.9394,-4.954,-4.954,-4.954,-4.954,0,-5.0534,-5.0454,-5.0405,-5.0294,-5.0234,-5.0154,-5.0084,-5.0028,-4.9996,-4.9942,-4.9831,-4.9748,-4.9643,-4.9611,-4.9578,-4.9476,-4.948,-4.9474,-4.9483,-4.9433,-4.9399,-4.9385,-4.954,-4.954,-4.954,-4.954,0,0,-5.0493,-5.0354,-5.0336,-5.0283,-5.0176,-5.011,-5.0027,-4.9927,-4.9878,-4.9798,-4.9722,-4.9597,-4.959,-4.9528,-4.9487,-4.9431,-4.9362,-4.943,-4.9427,-4.9416,-4.9237,-4.9239,-4.9225,-4.9345,-4.9342,-4.934,-4.9244,0,-5.0419,-5.0272,-5.022,-5.0097,-5.0018,-4.9977,-4.9903,-4.9826,-4.9773,-4.9695,-4.9635,-4.9546,-4.9546,-4.9508,-4.9451,-4.9383,-4.9324,-4.9389,-4.9267,-4.9264,-4.9289,-4.9208,-4.9211,-4.9124,-4.9231,-4.9228,-4.9227,0,-5.0313,-5.0234,-5.0103,-5.0002,-4.9967,-4.9902,-4.9804,-4.9733,-4.9643,-4.9607,-4.9538,-4.95,-4.9405,-4.9424,-4.9288,-4.9334,-4.9281,-4.9239,-4.9234,-4.9217,-4.9239,-4.9183,-4.9095,-4.908,-4.9206,-4.9208,-4.9209,0,-5.029,-5.015,-5.0053,-5.001,-4.9891,-4.9845,-4.9792,-4.9705,-4.9647,-4.956,-4.9521,-4.9424,-4.9369,-4.9292,-4.9226,-4.9247,-4.9094,-4.9109,-4.9057,-4.9058,-4.9023,-4.9025,-4.892,-4.8998,-4.8998,-4.8998,-4.8998,0,-5.0211,-5.0131,-5.004,-4.998,-4.9888,-4.9827,-4.9735,-4.968,-4.9601,-4.9525,-4.9484,-4.9412,-4.9332,-4.9249,-4.9197,-4.9089,-4.9066,-4.903,-4.9016,-4.9031,-4.9035,-4.8992,-4.8994,-4.8995,-4.8995,-4.8996,-4.8997,0,-5.0168,-5.0105,-4.9995,-4.9892,-4.9864,-4.98,-4.9708,-4.9645,-4.9591,-4.9494,-4.9468,-4.938,-4.9279,-4.9208,-4.9078,-4.9042,-4.8925,-4.8914,-4.8956,-4.8948,-4.8898,-4.8902,-4.8757,-4.8732,-4.8832,-4.8831,-4.8831,0,-5.0119,-5.0057,-4.9947,-4.9895,-4.9843,-4.976,-4.9701,-4.9637,-4.9577,-4.9468,-4.9416,-4.9314,-4.9228,-4.9068,-4.8989,-4.8888,-4.887,-4.8827,-4.8854,-4.887,-4.8863,-4.8865,-4.8856,-4.8821,-4.8821,-4.882,-4.882,0,-5.0037,-5.0009,-4.9928,-4.9834,-4.9766,-4.9689,-4.961,-4.9569,-4.949,-4.9423,-4.9321,-4.9255,-4.9122,-4.9018,-4.8909,-4.8849,-4.8818,-4.8812,-4.8794,-4.8805,-4.883,-4.881,-4.8939,-4.8815,-4.8815,-4.8815,-4.8816,-4.8816,-4.9986,-4.9927,-4.984,-4.975,-4.9685,-4.9612,-4.9546,-4.9484,-4.9399,-4.9288,-4.9255,-4.9148,-4.9054,-4.8905,-4.8844,-4.8755,-4.8757,-4.8731,-4.8724,-4.8717,-4.8715,-4.8849,-4.8735,-4.8735,-4.8735,-4.8735,-4.8736,0,-4.9897,-4.984,-4.9757,-4.965,-4.9577,-4.956,-4.9472,-4.941,-4.9318,-4.9235,-4.9152,-4.9032,-4.893,-4.8844,-4.8737,-4.8682,-4.8665,-4.8656,-4.8656,-4.8642,-4.8722,-4.8747,-4.8671,-4.8671,-4.8671,-4.8671,-4.8671,-4.8671,-4.9843,-4.9741,-4.9701,-4.9564,-4.9505,-4.9403,-4.9353,-4.9283,-4.9216,-4.9086,-4.9002,-4.8948,-4.8861,-4.8748,-4.8652,-4.8629,-4.8588,-4.8581,-4.8554,-4.863,-4.8637,-4.8644,-4.8666,-4.8575,-4.8575,-4.848,-4.8479,-4.8478]}]]